{"data":{"norad_id":67160,"intl_designator":"2025-302A","name":"GSAT0233 (GALILEO 33)","alt_names":[],"object_type":"PAYLOAD","status":"ACTIVE","operator":null,"country":"ESA","launch_date":"2025-12-17","launch_site_code":"FRGUI","launch_vehicle":null,"mission":null,"orbit_class":"UNKNOWN","rcs_meters":null,"size_class":null,"mass_kg":null,"dimensions":null,"purposes":["earth_obs","nav"],"wikipedia_slug":null,"has_3d_model":false,"image_url":null,"decayed_at":null,"tle_current":{"epoch":"2026-05-21T19:50:23.436960Z","epoch_age_seconds":356189,"freshness":"STALE","line1":"1 67160U 25302A   26141.82666015  .00000020  00000+0  00000+0 0  9990","line2":"2 67160  54.3194 102.8809 0001476 247.4028 291.0151  1.70474125  2676","mean_motion":1.70474125,"eccentricity":0.0001476,"inclination_deg":54.3194,"raan_deg":102.8809,"arg_perigee_deg":247.4028,"mean_anomaly_deg":291.0151,"bstar":0,"rev_number":267,"period_min":844.70297178531,"perigee_km":23217.799582853,"apogee_km":23226.537593063,"semimajor_km":29600.305587958,"source":"CELESTRAK","updated_at":"2026-05-25T13:38:24.062880Z"}}}